Zurück zum Katalog

STARLINK-32183

AktivKommunikationVLEO
NORAD 60433·PAYLOAD·🇺🇸 United States

Gestartet Aug 12, 2024 von Cape Canaveral Space Force Station

Loading…

Nächste Überflüge (nächste 24 Stunden)

TLE

AktuellSource: CelesTrak SupGP

Epoche: Sep 14, 2026, 20:44 UTC

1 60433C 24144J   26257.86437500  .00038272  00000+0  11311-2 0  2573
2 60433  53.1594  55.8471 0001250  81.7870 116.7034 15.34362780    16

Verfolge STARLINK-32183 in Echtzeit mit AllMySat

Download on the App Store